VOCIVOML

Guest
Details From VOCI - COCHIN INTL
To VOML - MANGALORE
Flight Number -
Tags decoded
Created
Modified
Stats Distance 191 nm / 353 km
Max Altitude 0 ft / 0 m
Waypoints 2
Social Downloads 0
Likes 0
Share VATSIM

Download

Looking for another format? Having issues loading an existing format? Contact us
Advertisement - Login to hide

Notes

Requested: VOCI VOML

Route

VOCI VOML

ID Type Via Altitude Latitude Longitude Leg Dist Tot Dist Heading (true) Name
O VOCI APT - 0 ft / 0 m 10.15200˚ 76.40191˚ - 0 nm - COCHIN INTL
O VOML APT - 0 ft / 0 m 12.95794˚ 74.88870˚ 190 nm 190 nm 332° / 332° MANGALORE

Altitude Profile

Advertisement - Login to hide

Weather


0- 5 10 15 20 25 30 35+ Temperature / ° C

Clouds and Precipitation
Forecast for 2018-05-22 00:00 UTC. Updated an hour ago

Ground ~20,000 ft ~40,000 ft Winds

VOCI

Details ICAO VOCI (COK)
Name COCHIN INTL
Region India
Timezone Asia/Kolkata (UTC+5.5)
Stats Elevation 30 ft / 9 m (AMSL)
Location 10.151996° 76.401905°
Runways 1
Magnetic Variation 1.623° W

METAR

VOCI 220030Z 00000KT 3500 BR SCT012 FEW025CB BKN080 26/24 Q1007 NOSIG

Decode

TAF

TAF VOCI 212300Z 2200/2306 00000KT 4000 BR SCT015 FEW025CB BKN080 TEMPO 2200/2202 2000 BR SCT015 BKN080 BECMG 2205/2206 24005KT 5000 HZ TEMPO 2209/2213 3000 TSRA RA SCT010 FEW025CB BKN080 BECMG 2216/2217 00000KT 4000 BR TEMPO 2222/2302 2000 BR SCT015 SCT080 BECMG 2305/2306 25005KT 6000

Decode

Departure Runways

ID Width Length Bearing (true) Bearing (mag) Surface Threshold Offset Overrun Length
09 148 ft / 45 m 11,139 ft / 3,395 m 87.86° 89.48° Asphalt 0 ft / 0 m 195 ft / 59 m
27 148 ft / 45 m 11,139 ft / 3,395 m 267.87° 269.49° Asphalt 0 ft / 0 m 195 ft / 59 m

VOML

Details ICAO VOML (IXE)
Name MANGALORE
Region India
Timezone Asia/Kolkata (UTC+5.5)
Stats Elevation 337 ft / 103 m (AMSL)
Location 12.957941° 74.888702°
Runways 2
Magnetic Variation 1.157° W

METAR

VOML 220030Z 11004KT 6000 FEW015 FEW025CB SCT080 24/22 Q1006 NOSIG

Decode

TAF

TAF VOML 212300Z 2200/2306 09005KT 6000 SCT015 TEMPO 2200/2203 3000 BR SCT010 SCT080 BECMG 2206/2207 27010KT TEMPO 2209/2215 SCT012 FEW025CB SCT080 BECMG 2218/2219 09005KT TEMPO 2300/2303 3000 BR SCT010

Decode

Destination Runways

ID Width Length Bearing (true) Bearing (mag) Surface Threshold Offset Overrun Length
06 151 ft / 46 m 8,054 ft / 2,455 m 58.13° 59.29° Concrete 394 ft / 120 m 0 ft / 0 m
09 151 ft / 46 m 5,321 ft / 1,622 m 89.10° 90.26° Asphalt 0 ft / 0 m 0 ft / 0 m
24 151 ft / 46 m 8,054 ft / 2,455 m 238.13° 239.29° Concrete 0 ft / 0 m 0 ft / 0 m
27 151 ft / 46 m 5,321 ft / 1,622 m 269.11° 270.27° Asphalt 0 ft / 0 m 0 ft / 0 m

Approach Navaids

Runway Type Ident Frequency Range Bearing (true) Bearing (mag) Slope Elevation
24 Localiser IMNG 110.10 MHz 18 nm / 33 km 238.14° 239.30° - 337 ft / 103 m (AMSL)
24 Glidescope IMNG 110.10 MHz 10 nm / 19 km 238.13° 239.29° 3.00° 337 ft / 103 m (AMSL)
24 DME IMNG 110.10 MHz 18 nm / 33 km - - - 337 ft / 103 m (AMSL)

Popular Alternatives